Date String (YYYY-MM-DD hh:mm:ss) UTC,Instrument flags,Ambient pressure (hPa),Sample flow (lpm),Bypass flow (lpm),Sample temperature (°C),Ambient temperature (°C),ASC tube jacket temperature (°C),LED temperature (°C),Box temperature (°C),Sample RH (%),Span deviation,Mass concentration (μg/m³),Mass concentration (μg/m³),Mass concentration (μg/m³)
DateTimeUTC,F1_M11,P_M11,Q1_M11,Q2_M11,T1_M11,T2_M11,T3_M11,T4_M11,T5_M11,U1_M11,ZSPAN_M11,X0_M11,X2_M11,X1_M11
2021-11-08 12:00:00,,0829.9,4.99,0.00,27.8,26.8,00.0,36.8,29.5,14.5,0000.0,0009.40,0003.28,0002.16
2021-11-08 12:01:00,,0830.0,5.00,0.00,27.8,26.8,00.0,36.8,29.5,14.5,0000.0,0009.46,0003.31,0002.16
2021-11-08 12:02:00,,0830.1,5.02,0.00,27.8,26.8,00.0,36.8,29.5,14.4,0000.0,0009.43,0003.31,0002.16
2021-11-08 12:03:00,,0830.1,5.00,0.00,27.8,26.8,00.0,36.8,29.5,14.4,0000.0,0009.54,0003.36,0002.16
2021-11-08 12:04:00,,0830.1,5.00,0.00,27.8,26.8,00.0,36.8,29.5,14.4,0000.0,0009.15,0003.39,0002.18
2021-11-08 12:05:00,,0830.1,4.98,0.00,27.8,26.8,00.0,36.8,29.5,14.4,0000.0,0008.39,0003.41,0002.21
2021-11-08 12:06:00,,0830.1,5.00,0.00,27.8,26.8,00.0,36.8,29.5,14.5,0000.0,0008.88,0003.38,0002.20
2021-11-08 12:07:00,,0830.1,5.00,0.00,27.7,26.8,00.0,36.8,29.5,14.5,0000.0,0008.91,0003.36,0002.20
2021-11-08 12:08:00,,0830.1,5.01,0.00,27.7,26.8,00.0,36.8,29.5,14.5,0000.0,0008.40,0003.33,0002.21
2021-11-08 12:09:00,,0830.2,4.99,0.00,27.7,26.8,00.0,36.8,29.5,14.5,0000.0,0008.53,0003.35,0002.24
2021-11-08 12:10:00,,0830.2,5.00,0.00,27.7,26.7,00.0,36.8,29.5,14.5,0000.0,0008.46,0003.36,0002.26
2021-11-08 12:11:00,,0830.1,5.01,0.00,27.7,26.7,00.0,36.8,29.5,14.5,0000.0,0008.24,0003.35,0002.28
2021-11-08 12:12:00,,0830.1,4.99,0.00,27.7,26.7,00.0,36.8,29.5,14.4,0000.0,0008.24,0003.33,0002.27
2021-11-08 12:13:00,,0830.2,5.01,0.00,27.7,26.7,00.0,36.8,29.5,14.4,0000.0,0008.52,0003.37,0002.28
2021-11-08 12:14:00,,0830.2,5.00,0.00,27.7,26.7,00.0,36.8,29.5,14.4,0000.0,0008.78,0003.36,0002.29
2021-11-08 12:15:00,,0830.3,5.00,0.00,27.7,26.7,00.0,36.8,29.5,14.4,0000.0,0009.22,0003.33,0002.30
2021-11-08 12:16:00,,0830.3,4.99,0.00,27.7,26.7,00.0,36.8,29.4,14.4,0000.0,0009.25,0003.30,0002.31
2021-11-08 12:17:00,,0830.3,4.99,0.00,27.7,26.7,00.0,36.8,29.4,14.4,0000.0,0008.84,0003.31,0002.33
2021-11-08 12:18:00,,0830.2,5.00,0.00,27.7,26.7,00.0,36.8,29.4,14.4,0000.0,0008.71,0003.34,0002.34
2021-11-08 12:19:00,,0830.2,5.00,0.00,27.7,26.7,00.0,36.7,29.4,14.4,0000.0,0008.93,0003.37,0002.34
2021-11-08 12:20:00,,0830.2,4.99,0.00,27.7,26.7,00.0,36.7,29.4,14.4,0000.0,0009.00,0003.41,0002.34
2021-11-08 12:21:00,,0830.2,5.01,0.00,27.7,26.7,00.0,36.7,29.4,14.4,0000.0,0009.21,0003.48,0002.34
2021-11-08 12:22:00,,0830.2,5.00,0.00,27.7,26.7,00.0,36.7,29.4,14.4,0000.0,0009.37,0003.50,0002.34
2021-11-08 12:23:00,,0830.2,5.00,0.00,27.7,26.7,00.0,36.7,29.4,14.4,0000.0,0009.84,0003.50,0002.33
2021-11-08 12:24:00,,0830.3,5.00,0.00,27.7,26.7,00.0,36.7,29.4,14.5,0000.0,0009.61,0003.46,0002.32
2021-11-08 12:25:00,,0830.4,4.99,0.00,27.6,26.7,00.0,36.7,29.4,14.5,0000.0,0009.48,0003.45,0002.30
2021-11-08 12:26:00,,0830.5,5.00,0.00,27.6,26.6,00.0,36.7,29.4,14.5,0000.0,0008.74,0003.44,0002.28
2021-11-08 12:27:00,,0830.4,5.01,0.00,27.6,26.6,00.0,36.7,29.3,14.5,0000.0,0008.80,0003.45,0002.25
2021-11-08 12:28:00,,0830.4,5.00,0.00,27.6,26.6,00.0,36.7,29.4,14.5,0000.0,0008.67,0003.49,0002.22
2021-11-08 12:29:00,,0830.4,5.00,0.00,27.6,26.6,00.0,36.7,29.4,14.6,0000.0,0008.81,0003.49,0002.22
2021-11-08 12:30:00,,0830.4,5.00,0.00,27.6,26.6,00.0,36.7,29.3,14.5,0000.0,0008.69,0003.47,0002.22
2021-11-08 12:31:00,,0830.4,5.00,0.00,27.6,26.5,00.0,36.7,29.3,14.5,0000.0,0008.56,0003.46,0002.19
2021-11-08 12:32:00,,0830.5,5.00,0.00,27.6,26.5,00.0,36.7,29.3,14.5,0000.0,0008.47,0003.42,0002.17
2021-11-08 12:33:00,,0830.4,5.01,0.00,27.5,26.5,00.0,36.6,29.3,14.5,0000.0,0008.90,0003.41,0002.15
2021-11-08 12:34:00,,0830.4,5.00,0.00,27.5,26.5,00.0,36.6,29.2,14.5,0000.0,0009.25,0003.42,0002.15
2021-11-08 12:35:00,,0830.5,5.00,0.00,27.5,26.5,00.0,36.6,29.2,14.5,0000.0,0009.51,0003.42,0002.16
2021-11-08 12:36:00,,0830.5,5.00,0.00,27.5,26.5,00.0,36.6,29.2,14.5,0000.0,0009.47,0003.39,0002.16
2021-11-08 12:37:00,,0830.6,5.00,0.00,27.5,26.5,00.0,36.6,29.2,14.4,0000.0,0009.50,0003.39,0002.16
2021-11-08 12:38:00,,0830.6,4.99,0.00,27.5,26.4,00.0,36.6,29.1,14.4,0000.0,0009.57,0003.42,0002.17
2021-11-08 12:39:00,,0830.6,5.00,0.00,27.4,26.4,00.0,36.6,29.1,14.2,0000.0,0009.84,0003.40,0002.17
2021-11-08 12:40:00,,0830.5,5.00,0.00,27.4,26.4,00.0,36.6,29.1,14.2,0000.0,0009.85,0003.41,0002.16
2021-11-08 12:41:00,,0830.6,4.99,0.00,27.4,26.4,00.0,36.5,29.1,14.2,0000.0,0010.10,0003.40,0002.16
2021-11-08 12:42:00,,0830.6,5.00,0.00,27.4,26.4,00.0,36.5,29.1,14.2,0000.0,0010.29,0003.38,0002.16
2021-11-08 12:43:00,,0830.6,4.98,0.00,27.4,26.4,00.0,36.5,29.1,14.2,0000.0,0010.73,0003.37,0002.16
2021-11-08 12:44:00,,0830.6,5.01,0.00,27.4,26.4,00.0,36.5,29.1,14.2,0000.0,0010.54,0003.34,0002.16
2021-11-08 12:45:00,,0830.6,5.01,0.00,27.4,26.4,00.0,36.5,29.1,14.1,0000.0,0010.05,0003.30,0002.16
2021-11-08 12:46:00,,0830.5,5.00,0.00,27.4,26.4,00.0,36.5,29.1,14.1,0000.0,0009.37,0003.27,0002.16
2021-11-08 12:47:00,,0830.5,4.99,0.00,27.3,26.4,00.0,36.5,29.1,14.2,0000.0,0009.33,0003.27,0002.15
2021-11-08 12:48:00,,0830.5,5.00,0.00,27.3,26.3,00.0,36.4,29.1,14.3,0000.0,0009.37,0003.31,0002.16
2021-11-08 12:49:00,,0830.5,4.99,0.00,27.3,26.3,00.0,36.4,29.1,14.3,0000.0,0009.63,0003.33,0002.16
2021-11-08 12:50:00,,0830.6,5.01,0.00,27.3,26.3,00.0,36.4,29.1,14.3,0000.0,0011.01,0003.38,0002.17
2021-11-08 12:51:00,,0830.6,5.00,0.00,27.3,26.3,00.0,36.4,29.1,14.3,0000.0,0011.46,0003.35,0002.16
2021-11-08 12:52:00,,0830.6,5.00,0.00,27.3,26.4,00.0,36.4,29.1,14.3,0000.0,0011.48,0003.34,0002.16
2021-11-08 12:53:00,,0830.6,4.99,0.00,27.3,26.3,00.0,36.4,29.1,14.4,0000.0,0011.73,0003.39,0002.18
2021-11-08 12:54:00,,0830.6,5.01,0.00,27.3,26.3,00.0,36.4,29.1,14.4,0000.0,0011.42,0003.40,0002.20
2021-11-08 12:55:00,,0830.6,5.01,0.00,27.3,26.3,00.0,36.4,29.1,14.4,0000.0,0011.16,0003.40,0002.21
2021-11-08 12:56:00,,0830.6,5.00,0.00,27.3,26.3,00.0,36.4,29.1,14.4,0000.0,0011.12,0003.46,0002.23
2021-11-08 12:57:00,,0830.6,4.99,0.00,27.3,26.3,00.0,36.4,29.1,14.4,0000.0,0011.11,0003.52,0002.25
2021-11-08 12:58:00,,0830.6,5.02,0.00,27.3,26.3,00.0,36.4,29.1,14.4,0000.0,0011.24,0003.53,0002.26
2021-11-08 12:59:00,,0830.8,4.99,0.00,27.3,26.3,00.0,36.4,29.1,14.5,0000.0,0011.65,0003.51,0002.27
